Wind_Speed
27 22 23 19 18 47 28 7 3 17 25 5 4 10 13 10 13 12 6 8 11 11 15 17 16 13 6 11 11 8 6 5 8 12 4 6 7 7 6 4 4 6 8 14
29 26 24 23 24 51 17 2 4 7 8 4 7 12 17 12 17 17 13 12 12 13 14 10 12 6 6 11 12 8 8 6 7 6 8 6 9 9 8 7 3 10 9 9
29 29 27 28 31 48 17 5 5 2 2 2 5 15 18 14 11 15 11 10 10 12 12 3 10 10 8 8 8 9 4 7 12 8 6 5 14 12 12 12 9 11 11 15
31 31 31 32 37 47 15 3 5 9 10 13 8 11 13 20 11 8 13 10 12 11 8 9 11 12 10 8 7 6 6 7 11 11 4 4 8 11 13 15 15 14 16 17
34 33 34 33 40 46 5 5 5 11 11 22 16 15 15 24 17 15 17 11 12 9 7 4 9 13 12 9 11 12 9 4 3 8 10 10 11 14 16 15 15 14 14 14
38 37 39 36 39 46 5 5 8 8 12 21 14 13 17 22 16 12 13 12 8 8 6 7 9 12 14 5 14 13 10 5 7 9 8 10 12 16 12 10 2 4 10 10
41 44 44 41 42 55 9 9 11 6 7 15 21 22 19 18 20 12 15 19 18 10 13 15 12 8 7 11 9 7 8 8 3 4 5 12 4 5 3 2 8 10 6 7
44 47 48 45 46 64 16 25 5 4 6 15 15 16 18 17 16 10 11 14 12 18 18 14 11 8 6 7 8 9 7 7 5 5 11 5 8 7 5 5 5 4 5 5
48 51 49 48 42 62 23 27 6 4 6 13 20 18 22 17 16 11 7 10 22 19 10 7 8 7 8 8 8 7 7 5 6 7 9 8 9 9 4 2 9 8 4 5
51 54 55 49 48 54 27 16 12 5 4 8 17 18 19 15 15 9 16 17 10 9 7 6 7 5 12 8 10 7 9 7 10 10 6 1 9 8 5 7 3 6 4 3
59 57 55 50 53 47 30 18 16 4 1 11 19 11 18 14 11 13 17 10 7 8 7 5 4 3 7 5 10 8 10 7 6 8 6 8 10 8 6 4 4 3 3 2
61 57 54 52 53 42 31 14 19 13 0 8 19 14 5 21 21 9 17 3 17 5 5 4 3 3 5 9 7 9 6 4 3 2 0 7 5 3 3 1 4 4 3 3
60 56 56 55 50 40 28 27 19 16 10 8 8 9 13 11 11 20 10 5 5 5 3 5 2 4 7 6 6 9 8 5 1 2 6 8 5 4 4 3 3 3 2 2
64 61 57 55 47 35 32 29 30 19 7 7 7 7 7 3 9 9 10 12 4 8 6 3 3 3 2 5 1 7 6 9 7 3 5 6 5 6 5 4 4 3 1 3
60 58 53 47 39 36 31 21 10 16 6 8 10 22 14 12 14 16 17 18 12 8 4 2 3 2 2 1 2 3 5 8 6 1 8 5 7 7 7 7 6 2 2 2
59 53 48 45 38 37 33 5 7 22 24 7 5 6 11 17 18 17 14 9 5 3 3 3 3 3 3 2 3 5 4 3 2 2 7 7 9 9 8 6 3 2 1 3
46 40 43 44 34 19 4 6 17 18 15 4 5 5 3 8 12 10 8 7 3 3 3 0 3 4 2 1 3 6 3 6 6 10 10 9 10 7 6 6 5 3 3 3
40 44 38 29 30 24 16 22 16 12 10 5 4 4 7 2 7 4 1 4 3 3 2 2 3 3 1 2 5 2 6 6 9 8 2 6 10 9 7 5 4 2 1 4
42 39 35 25 11 5 7 21 17 16 7 4 3 9 6 4 4 4 2 1 2 1 2 2 3 4 3 5 3 5 8 8 7 7 7 8 7 6 5 4 3 1 2 4
33 13 9 4 5 20 10 6 3 4 3 3 6 7 7 9 7 3 4 1 3 3 3 4 3 3 7 3 1 5 6 6 8 8 7 6 6 5 4 3 4 3 3 4
8 4 4 13 7 3 2 3 3 3 3 4 6 11 11 7 6 4 2 3 3 4 4 4 4 3 5 4 6 8 8 8 6 7 7 3 5 5 4 4 4 3 3 4
6 16 10 4 2 3 5 2 2 2 4 6 11 12 9 5 3 3 3 3 2 2 6 3 3 5 10 9 9 9 10 10 10 11 11 9 8 6 5 4 3 3 3 3
16 6 4 1 3 3 2 5 3 5 5 10 11 9 4 4 4 4 2 3 2 7 3 3 4 10 9 10 9 9 11 12 12 12 11 11 10 8 5 6 5 2 3 3
4 3 5 4 3 4 4 6 7 5 11 13 11 6 3 3 3 3 3 2 4 4 4 4 6 9 10 10 9 10 11 10 8 11 10 9 9 9 8 7 5 3 3 2
4 4 5 5 3 4 3 3 9 12 11 10 8 5 4 3 4 2 4 4 4 5 2 5 7 10 11 11 10 10 10 10 10 10 10 10 9 7 7 5 4 3 2 1
4 6 5 4 7 6 4 7 7 8 7 6 4 4 3 2 5 3 4 6 3 4 5 6 8 9 10 11 9 12 13 11 11 10 10 9 7 5 5 4 3 3 2 1
4 4 5 7 6 6 4 5 3 2 2 2 3 3 2 4 3 3 2 2 5 7 7 5 8 10 10 11 14 13 13 12 12 11 10 9 7 6 4 3 4 1 2 0
Wind_Direction
231 232 231 220 210 176 162 137 171 156 143 165 213 202 210 214 191 198 187 221 226 252 233 201 202 210 179 178 170 188 187 232 201 213 92 291 269 235 198 257 228 233 279 278
231 229 220 220 203 172 149 86 105 213 153 176 207 198 208 199 191 193 186 205 205 228 200 208 215 209 88 177 188 182 170 213 191 214 209 206 226 206 181 207 273 264 274 285
233 225 216 219 199 183 156 126 115 190 178 213 212 197 194 198 197 196 188 184 184 189 192 184 179 157 183 189 195 43 250 257 242 271 2 171 205 221 206 214 245 276 269 276
233 225 217 213 198 183 162 177 173 190 180 202 214 201 203 187 168 185 182 172 199 179 169 173 173 156 154 198 130 192 221 246 235 258 238 240 208 212 219 234 247 260 278 296
229 225 212 206 195 187 175 140 166 186 176 189 207 193 200 198 183 169 189 195 162 154 198 163 165 173 186 176 175 203 208 241 323 253 246 243 245 239 245 251 260 272 284 294
227 221 206 210 203 187 144 178 194 148 167 181 190 197 208 202 181 195 207 180 165 193 206 186 202 184 188 198 181 187 190 220 207 254 193 215 243 234 228 237 266 292 277 322
222 214 207 209 202 190 144 164 147 161 168 178 197 197 206 189 184 178 181 181 182 147 120 108 102 139 165 170 162 170 195 216 218 272 175 235 127 52 96 224 250 246 258 291
215 209 203 206 204 195 174 170 169 173 171 184 200 212 186 183 168 162 168 179 143 150 141 119 133 147 145 172 176 190 210 209 215 228 226 155 173 191 217 240 263 183 251 268
207 200 200 201 201 193 187 184 186 150 145 198 180 187 188 171 172 160 115 128 149 168 157 180 171 182 175 175 178 223 197 264 263 216 255 251 81 117 141 141 259 152 214 267
198 195 199 196 198 191 177 175 181 117 146 177 174 192 178 173 162 140 137 141 157 185 188 187 190 173 185 170 184 188 194 214 220 237 242 289 144 144 168 236 92 162 247 245
195 194 192 190 190 185 162 165 157 120 128 144 189 171 165 160 173 160 158 150 187 182 173 183 187 187 193 197 185 174 190 196 201 242 227 245 151 147 232 88 137 181 196 234
187 183 180 182 179 168 169 139 154 157 200 100 98 96 47 179 183 156 171 162 163 157 177 213 167 196 166 200 176 175 206 220 240 189 142 125 116 83 94 120 155 179 209 240
174 175 172 162 155 157 150 149 162 126 129 109 113 77 46 66 115 165 166 137 112 170 108 148 171 204 189 194 212 167 204 159 219 190 190 176 145 128 159 146 167 203 235 311
147 144 144 148 146 139 149 151 158 149 124 114 90 122 67 84 118 115 147 121 110 129 155 136 161 188 261 198 321 209 151 178 187 215 206 128 203 165 177 163 182 199 163 346
131 134 137 140 147 145 133 129 149 150 138 116 119 78 55 105 115 110 127 140 146 141 130 133 161 83 175 134 242 186 189 198 191 272 172 177 155 145 162 169 194 170 300 297
126 127 133 139 147 134 125 107 75 126 123 115 89 80 71 89 101 108 110 108 112 121 119 132 95 49 284 198 237 66 191 97 155 152 150 109 144 161 172 171 120 111 51 24
129 131 138 143 147 144 87 117 135 126 107 97 106 118 95 111 103 111 103 104 70 103 102 84 127 142 251 203 249 108 137 150 163 111 127 132 155 148 132 139 130 138 78 43
129 138 133 124 107 97 90 101 114 112 90 89 101 109 137 209 140 105 327 113 115 23 96 139 154 130 210 228 88 128 116 118 121 147 32 124 112 130 134 141 149 137 38 8
127 122 112 103 79 85 117 106 86 71 82 108 130 148 143 163 81 111 92 33 109 83 152 135 193 145 192 80 135 161 149 163 158 130 121 126 137 133 134 133 112 110 31 5
126 124 61 69 76 121 106 58 51 38 45 47 126 109 131 144 155 107 132 139 133 160 169 120 230 117 96 65 344 129 140 127 148 151 152 144 140 150 139 101 79 58 32 11
89 59 70 115 102 112 55 69 70 127 95 110 130 134 132 147 136 127 70 143 158 186 129 189 179 176 137 131 103 100 108 108 89 92 97 108 126 134 136 117 91 72 36 29
112 115 110 93 71 70 82 62 84 147 111 141 139 142 123 103 117 104 175 117 215 151 133 168 208 124 138 143 136 131 127 119 101 97 97 99 102 97 102 108 101 74 54 46
100 76 63 349 8 88 150 143 124 123 131 144 135 135 126 132 91 95 113 145 120 130 183 203 69 135 149 149 142 139 133 129 124 117 112 107 95 82 83 90 73 61 75 29
67 66 69 14 74 66 37 63 106 108 132 144 137 113 97 120 82 136 108 69 154 185 189 171 141 149 148 148 148 144 136 120 105 116 114 111 107 96 82 81 83 75 74 58
61 40 60 60 94 73 52 96 116 126 129 126 120 88 90 93 110 126 118 159 177 201 172 111 115 141 147 149 158 144 133 127 122 119 114 114 114 106 95 89 83 87 80 35
63 48 100 112 95 88 77 79 100 123 124 108 79 104 92 95 129 154 185 167 166 150 101 121 128 140 147 153 142 127 140 138 133 130 131 127 124 121 114 115 88 71 64 85
51 64 24 67 61 76 85 72 42 300 124 81 107 81 78 134 149 136 151 124 99 120 123 117 126 146 137 124 133 141 140 137 136 134 135 134 131 130 143 161 119 108 102 29
Height
720 723 727 731 735 737 742 744 761 766 771 782 776 760 743 742 747 750 749 748 743 753 745 754 752 755 765 774 779 784 779 781 780 785 779 786 783 789 794 801 793 792 797 784
714 718 722 726 729 730 738 751 762 772 771 765 769 738 741 743 743 744 744 747 748 750 750 761 755 764 775 779 782 779 787 783 780 788 790 790 789 788 793 805 813 804 804 783
706 711 716 720 725 728 732 747 756 772 770 768 760 739 740 745 738 740 743 745 754 756 754 760 761 775 787 788 785 795 789 783 777 771 773 769 789 785 786 790 797 787 780 774
698 704 709 715 720 723 728 736 736 731 743 756 756 745 740 740 748 744 747 752 753 753 761 768 770 783 795 796 799 795 792 793 783 780 780 779 779 783 784 788 787 789 780 777
689 695 701 707 714 722 725 728 726 726 715 740 750 750 744 742 737 747 748 749 755 756 764 765 774 779 790 786 793 794 793 794 792 789 782 781 784 780 781 780 778 777 778 780
680 687 694 700 707 714 715 721 716 715 719 732 747 737 728 727 733 745 744 754 762 769 767 766 767 773 777 779 788 791 793 790 792 781 778 782 785 777 775 779 784 797 796 789
669 677 685 691 698 703 708 714 714 718 721 725 720 724 730 729 735 744 742 750 756 762 766 768 771 778 781 781 784 787 791 789 786 779 785 794 774 772 776 786 790 788 795 801
656 665 674 682 690 698 705 709 713 710 713 717 723 719 724 728 738 744 746 745 752 765 765 773 786 788 791 789 789 790 786 785 786 787 777 773 781 783 785 784 784 792 801 803
644 655 665 673 683 693 702 706 706 706 709 709 713 718 722 723 736 742 753 758 761 763 762 763 771 778 773 785 790 787 788 789 790 783 780 772 772 785 791 793 794 799 804 809
632 644 655 668 679 690 698 702 707 705 712 712 718 719 717 723 731 745 755 760 766 763 763 765 763 762 762 773 787 797 794 795 794 783 781 774 779 788 793 798 802 806 811 811
619 634 648 662 675 687 693 701 706 709 710 706 713 713 717 723 730 743 752 761 765 763 763 766 758 754 757 761 768 792 791 792 787 784 787 785 782 792 795 801 808 811 814 815
609 627 644 659 673 682 691 703 708 711 717 716 722 727 732 728 731 732 748 742 750 755 756 759 755 764 760 760 772 782 791 788 775 775 779 785 786 792 802 805 807 813 814 817
605 625 642 655 668 679 687 700 706 710 717 724 724 730 735 733 733 737 737 742 749 754 751 758 758 762 763 762 757 772 781 780 789 789 790 786 796 800 804 809 812 814 814 814
606 623 639 655 669 678 690 697 703 707 710 723 739 740 740 741 740 739 742 747 754 757 756 759 762 761 762 753 753 759 772 779 782 792 789 792 796 800 807 811 814 814 815 816
614 630 645 659 671 681 687 697 701 703 707 717 734 737 743 742 742 744 748 753 754 754 759 766 761 760 764 763 762 761 768 773 782 775 787 792 792 804 809 813 814 814 816 816
625 638 651 661 672 678 685 698 705 703 702 715 736 749 749 746 747 749 751 753 753 753 758 760 762 771 766 766 758 763 766 773 777 779 787 790 800 804 807 809 814 818 819 820
636 648 659 669 677 681 685 690 699 704 707 718 736 746 756 754 753 755 757 759 759 759 763 762 761 767 770 771 765 767 773 777 782 786 792 797 800 803 809 813 818 821 821 823
645 655 665 673 678 685 692 697 702 704 707 719 739 750 751 754 752 758 761 761 762 765 763 767 763 773 772 771 768 774 776 782 788 792 794 794 802 809 812 815 817 819 821 824
654 661 668 675 684 691 700 701 704 705 712 724 733 736 750 754 759 761 764 761 768 769 768 763 768 766 771 772 772 777 781 788 792 796 799 803 805 809 814 816 819 820 823 825
660 666 671 687 694 696 698 704 708 715 718 722 724 729 744 750 755 761 766 763 765 772 767 768 768 762 775 780 779 779 786 790 795 799 803 806 810 814 816 819 823 824 826 828
663 674 684 694 695 697 700 712 712 717 723 722 725 733 738 751 754 762 759 766 766 764 765 770 766 764 781 784 785 789 794 798 801 803 805 808 810 815 819 823 826 828 830 831
670 676 689 695 696 700 707 717 716 705 718 722 729 734 740 747 750 758 764 767 770 761 769 776 765 776 781 789 795 798 801 804 807 810 814 816 818 820 822 825 827 830 833 835
677 684 697 696 707 703 697 715 711 717 720 721 728 737 742 749 753 767 766 767 763 765 772 756 753 773 782 790 796 801 804 808 810 814 817 821 824 826 826 829 832 834 835 836
686 694 706 705 707 703 701 691 699 711 715 721 727 733 739 749 758 760 764 766 764 766 764 755 761 775 782 791 796 802 806 812 813 816 821 825 828 831 832 834 835 835 836 837
697 700 711 720 726 725 725 719 713 716 717 723 730 736 742 751 763 756 765 775 764 753 750 760 768 778 785 793 798 802 809 816 818 821 825 828 831 832 834 835 836 837 837 837
708 715 720 723 724 728 726 727 725 723 725 725 728 739 749 755 753 756 754 749 748 755 759 767 775 782 788 795 800 806 813 815 819 823 826 829 831 833 834 836 837 837 837 837
716 725 729 726 730 732 734 735 738 737 731 736 733 741 751 748 747 750 743 748 753 764 771 774 779 786 794 800 805 810 813 816 820 824 827 829 832 834 834 834 836 836 837 837